Theta_e
320 320 319 319 317 317 316 315 315 315 315 315 316 317 317 317 318 318 318 318 319 319 319 319 319 320 309 302 304 314 335 334 312 306 303 301 297 298 298 296 299 298 301 303 306 307 307
320 320 319 319 318 317 317 316 316 315 315 315 315 315 316 317 318 318 318 318 318 318 318 319 319 320 308 296 310 320 312 307 306 303 299 299 298 301 297 297 297 301 301 301 302 301 304
320 320 319 319 317 317 317 317 316 316 315 315 315 315 315 316 317 318 318 317 316 317 318 319 320 316 305 302 313 311 307 304 306 306 303 302 302 299 298 296 299 299 295 297 298 298 301
319 319 319 318 318 317 317 317 316 316 315 315 314 314 314 315 316 317 318 317 317 317 318 319 320 311 302 311 314 309 306 306 307 306 306 307 305 300 297 298 298 294 294 291 296 300 301
319 318 318 318 317 316 316 316 316 316 316 315 314 313 314 314 315 316 316 315 316 318 319 320 310 305 299 314 308 308 310 307 305 306 306 311 301 296 296 292 291 291 289 290 295 301 300
318 318 318 318 317 316 316 316 316 316 316 315 314 313 313 314 314 315 314 315 318 318 317 317 312 300 303 304 308 308 306 307 304 302 301 300 295 292 290 291 286 288 288 290 292 297 299
317 318 318 317 317 316 315 316 315 315 315 315 314 313 312 313 314 313 308 304 302 301 305 302 303 303 305 309 307 304 307 304 302 300 293 295 292 289 291 291 292 292 290 289 293 299 295
317 317 317 317 316 315 315 315 315 315 315 315 314 313 312 312 313 313 305 303 304 304 299 306 306 306 309 308 304 303 307 299 298 293 295 293 290 295 296 293 293 291 289 289 294 297 295
317 317 317 316 316 315 315 315 315 315 314 314 313 312 311 312 312 306 303 303 307 304 297 302 306 306 305 308 302 300 303 299 297 294 293 291 294 298 297 293 293 290 288 290 292 295 294
317 317 316 315 315 315 315 315 315 315 314 313 312 311 311 310 304 303 302 306 306 305 293 299 302 305 302 301 299 305 304 301 298 295 294 292 297 297 295 294 294 288 295 295 293 290 287
316 316 316 315 315 315 314 314 314 314 314 313 312 311 310 309 299 301 304 306 305 306 285 302 299 303 300 299 300 303 306 303 297 296 296 294 295 294 293 293 296 294 296 293 292 288 285
316 316 316 315 315 315 314 313 314 313 312 312 311 310 309 307 303 306 308 304 305 295 287 300 298 295 295 297 299 302 303 305 302 298 298 296 299 295 294 295 295 297 292 290 288 285 283
316 315 315 315 315 314 313 313 313 313 312 311 309 308 305 307 299 304 306 303 292 288 302 296 293 295 294 294 297 300 298 296 292 288 290 295 295 298 296 292 294 293 287 281 281 280 281
315 315 315 314 313 313 312 312 312 312 311 310 307 306 306 307 302 305 306 297 286 297 299 301 297 295 294 295 296 298 296 292 296 294 290 288 288 296 299 292 288 288 287 283 280 278 282
315 314 314 313 312 312 311 311 311 311 310 308 305 299 304 306 306 307 303 290 291 297 301 298 297 293 293 296 296 296 294 293 296 294 288 287 290 299 300 297 292 288 286 287 282 281 282
314 314 314 313 312 312 311 310 311 311 309 307 295 299 305 310 308 306 299 293 298 305 303 300 293 295 290 294 292 294 293 297 297 299 295 292 284 294 299 298 297 290 292 285 283 278 278
313 314 314 313 311 311 310 310 311 311 308 305 295 298 307 306 309 300 289 292 300 306 304 299 295 295 295 293 295 294 294 297 299 299 297 293 288 287 293 292 290 290 288 285 285 283 279
313 313 313 313 311 310 310 309 309 310 306 298 293 295 306 306 297 292 292 298 302 303 303 302 299 298 295 296 295 295 295 297 302 300 293 293 288 283 287 294 296 291 287 285 281 281 281
312 311 312 312 311 310 309 309 309 310 307 294 291 293 306 305 292 290 295 300 302 301 299 300 298 298 298 294 291 296 297 300 301 297 294 291 284 278 284 290 294 291 292 289 285 283 282
310 310 310 311 310 309 309 310 309 309 307 296 295 293 297 298 295 293 293 294 295 301 300 300 298 299 296 293 295 293 295 299 300 300 303 295 284 281 279 285 289 288 289 289 284 277 280
309 309 310 310 310 309 309 310 309 309 306 295 291 290 293 289 293 293 293 294 296 295 299 299 297 297 294 288 291 292 295 296 298 302 296 290 286 287 288 291 291 289 289 288 285 284 281
308 308 309 309 309 308 309 309 309 308 304 295 289 289 291 289 293 293 292 293 296 296 296 296 295 298 295 292 292 291 294 292 291 296 293 290 286 287 286 292 291 288 289 290 290 289 288
308 308 308 308 308 308 309 309 308 308 301 289 290 292 292 292 293 290 289 293 297 297 297 300 299 296 294 296 296 294 294 294 295 293 289 288 286 282 282 289 286 281 288 290 290 291 290
307 308 308 308 308 308 308 309 308 309 302 291 288 291 290 290 292 292 295 296 295 295 294 299 297 293 298 298 294 293 292 292 293 291 292 287 284 280 278 281 275 284 294 294 291 291 291
306 307 307 307 308 308 307 307 308 308 308 295 290 290 288 287 292 293 294 294 294 295 295 296 298 298 296 293 288 286 287 288 290 294 290 290 285 280 277 276 282 289 292 290 285 287 292
305 307 307 307 307 307 307 306 306 307 308 294 291 292 290 287 291 296 292 293 289 290 292 295 298 296 295 289 287 282 282 287 286 290 293 290 288 282 276 276 276 284 295 296 292 280 293
304 305 307 306 306 307 306 305 306 307 308 298 295 290 290 286 290 291 290 290 292 290 290 292 294 294 293 286 284 283 283 290 284 285 285 284 283 279 273 275 283 291 296 295 281 282 292
301 303 305 306 306 305 304 305 305 308 308 298 295 291 290 286 289 291 295 292 292 292 290 293 293 293 289 285 285 285 285 286 286 289 287 285 281 279 279 278 278 295 293 286 288 289 291
301 301 303 306 306 305 304 304 305 308 308 299 291 292 294 290 291 291 295 297 295 296 294 292 292 292 292 287 287 286 285 285 284 281 289 284 288 284 284 284 290 292 290 292 292 291 290
Wind_Speed
22 23 24 25 23 22 21 20 19 18 17 16 15 15 14 12 11 10 10 10 9 9 8 7 7 8 3 4 7 1 8 8 5 4 4 3 2 3 2 2 2 4 4 7 7 7 9
22 23 23 24 23 22 22 21 21 19 18 16 16 15 14 13 12 11 10 9 9 8 8 7 6 7 2 2 2 6 7 4 4 4 3 3 4 5 1 2 3 5 3 4 6 5 6
22 23 23 22 23 23 23 23 22 21 20 18 16 16 15 13 12 11 10 10 9 8 7 6 4 2 1 9 4 5 6 5 4 5 4 4 3 2 3 2 3 2 3 3 1 3 5
22 22 22 22 22 23 23 24 23 22 22 20 18 16 16 15 14 13 12 11 9 8 6 4 2 1 7 4 2 5 4 3 4 4 1 3 5 2 2 3 7 4 5 3 5 2 4
21 22 22 22 22 23 23 23 24 24 23 22 21 19 17 16 15 15 14 13 9 6 5 4 1 1 9 6 3 1 5 3 4 3 4 2 4 2 5 4 6 7 1 1 7 3 2
21 22 22 22 22 22 23 24 24 24 24 23 22 21 19 17 16 14 16 2 7 8 2 3 2 2 4 3 5 2 4 3 2 3 3 5 6 4 4 6 3 3 2 2 3 3 5
20 21 22 22 23 22 23 24 25 25 24 24 23 23 20 18 15 12 5 1 6 4 1 5 6 3 6 6 3 2 2 3 3 8 2 3 5 5 6 4 3 1 1 3 4 8 3
19 19 20 22 23 23 23 23 24 25 25 24 24 23 23 19 17 11 2 5 4 3 8 5 5 6 5 1 3 4 1 2 2 1 1 6 4 6 2 4 5 4 3 5 6 2 4
18 19 19 20 21 22 23 24 24 25 26 26 24 23 22 21 18 1 1 3 4 2 1 8 5 4 4 7 4 3 4 2 2 1 2 5 6 2 5 4 4 3 5 4 5 4 3
17 18 19 19 20 21 23 24 24 26 27 27 25 23 21 23 3 2 2 2 4 5 5 7 3 5 3 2 3 3 3 3 2 2 4 3 5 3 5 4 4 2 3 2 3 4 2
17 17 18 19 21 21 22 24 25 26 27 27 27 22 18 7 2 1 1 5 3 4 3 2 3 0 1 6 2 5 3 2 1 3 5 4 7 5 6 3 1 2 3 4 3 4 4
17 18 19 19 21 22 22 23 25 27 28 28 30 24 15 3 1 6 5 3 4 7 4 3 2 1 2 2 2 2 6 8 2 4 5 2 4 3 1 2 4 2 5 8 5 4 5
16 17 18 20 22 23 24 25 25 27 29 31 30 26 5 2 3 3 3 5 6 3 4 4 2 2 2 1 5 4 4 7 4 4 7 7 5 6 3 3 6 8 7 4 4 5 4
16 18 18 22 23 25 26 27 28 28 30 33 33 20 5 4 4 3 4 7 2 3 4 4 3 3 3 4 3 4 4 4 5 5 4 3 6 7 9 2 1 4 5 7 3 3 3
15 17 19 23 24 24 26 27 29 29 30 34 26 4 2 3 6 2 7 3 7 5 3 4 2 5 5 3 6 6 3 2 1 2 6 2 3 5 4 3 2 1 4 3 8 3 4
14 16 16 21 24 25 26 27 29 29 30 31 5 4 4 7 3 5 6 5 4 4 3 2 3 1 2 5 4 5 1 1 1 4 1 3 2 2 5 4 5 4 3 3 4 4 2
13 15 15 18 22 24 25 27 29 28 31 26 4 5 3 5 3 7 3 6 5 6 4 2 2 3 2 3 4 2 1 1 3 3 6 3 3 6 3 6 2 5 4 6 5 4 6
12 14 16 16 17 18 22 25 27 27 29 8 4 3 3 2 5 1 2 5 4 4 4 3 5 3 3 2 4 2 3 1 4 1 3 2 5 1 1 3 3 3 3 4 7 3 1
14 14 15 15 17 17 20 22 25 24 21 3 3 4 4 3 2 3 6 5 4 3 4 2 3 4 5 3 5 3 3 3 4 4 4 4 3 3 9 7 5 6 4 4 5 4 3
14 14 14 14 15 16 18 20 22 24 22 2 3 5 6 6 1 2 4 4 2 4 4 5 4 4 5 4 6 3 2 5 3 4 8 7 3 6 7 4 3 3 5 3 4 4 3
15 15 15 15 14 15 17 18 22 22 21 2 4 1 3 5 3 3 2 3 2 2 3 7 4 4 4 3 3 3 2 2 5 4 4 5 4 2 4 3 1 2 2 3 2 2 4
15 15 14 14 14 15 16 17 19 21 18 5 2 3 4 3 4 5 0 2 2 3 2 2 6 1 3 5 6 7 5 2 2 4 3 3 2 1 2 2 5 2 3 6 5 3 5
14 14 14 14 13 14 14 15 17 17 10 3 2 1 4 3 4 2 2 5 1 1 5 4 8 5 5 4 3 3 3 4 4 6 3 3 5 3 3 3 2 4 2 2 2 1 4
15 14 13 13 13 13 13 13 14 11 7 2 2 2 3 4 1 1 4 3 4 3 6 2 4 4 1 4 4 5 6 3 3 5 3 5 5 3 2 4 1 4 4 2 4 2 3
17 14 13 12 12 11 12 12 13 11 6 1 1 2 2 3 2 4 6 3 3 5 5 3 3 2 3 6 5 5 5 2 4 5 2 2 6 4 4 2 3 1 4 4 4 5 5
16 15 12 12 11 10 10 12 13 10 7 2 2 2 3 3 4 4 3 3 2 2 5 3 3 2 6 4 4 3 5 3 2 2 4 5 6 6 2 4 4 5 3 4 4 5 7
15 17 13 11 10 10 10 12 12 10 5 2 3 2 3 1 5 2 2 2 3 3 2 3 3 2 4 3 3 3 2 1 4 6 4 3 4 5 2 2 6 4 4 4 5 8 6
15 16 16 11 9 10 11 12 12 11 4 3 4 2 3 2 6 3 3 1 1 2 4 3 5 4 4 4 3 3 3 2 2 4 5 6 6 3 3 2 6 6 4 6 5 2 5
14 14 15 16 9 9 10 10 11 11 3 4 2 1 0 3 6 2 6 7 4 4 6 1 5 3 4 5 0 2 2 2 3 3 2 1 6 6 7 7 2 1 3 2 4 5 4
Wind_Direction
15 16 15 14 13 11 9 8 7 5 3 358 352 346 341 334 326 319 312 308 304 302 304 312 322 330 333 7 256 319 88 115 119 107 128 134 124 129 157 196 123 179 243 175 237 245 248
12 12 12 11 10 9 8 7 5 4 1 358 354 349 341 334 326 317 307 301 296 296 298 304 320 330 4 338 153 140 123 115 130 119 132 133 199 189 145 236 187 211 217 224 248 242 256
11 10 9 9 8 8 6 5 3 2 0 357 354 349 342 334 326 317 307 296 288 282 282 291 304 308 31 231 98 152 155 181 177 165 155 217 179 101 148 293 280 298 313 329 230 25 258
7 6 5 5 5 5 4 3 2 0 358 355 353 347 342 335 327 319 308 291 279 267 263 251 250 246 251 247 142 147 165 273 208 216 202 167 150 113 152 283 10 32 44 37 315 13 311
6 4 3 2 2 1 360 360 359 357 355 352 351 346 340 336 329 324 313 297 265 230 221 186 161 103 281 315 322 248 157 222 159 128 183 109 110 98 34 73 16 8 224 55 337 257 31
7 4 2 1 1 358 356 356 356 353 352 351 348 344 337 333 330 327 326 78 121 123 172 199 250 358 293 303 294 259 193 225 81 99 59 58 50 72 39 66 226 243 21 332 246 297 101
3 2 2 1 359 357 354 354 352 350 350 349 346 341 336 332 330 327 328 73 11 356 129 213 230 248 275 281 275 271 183 103 60 56 65 7 51 225 228 200 157 115 243 258 240 264 192
358 358 359 359 357 354 353 351 349 347 346 347 344 340 333 332 328 323 251 89 154 200 313 244 253 261 265 261 311 294 89 103 63 169 95 19 257 240 250 171 164 162 195 256 281 283 127
353 354 355 355 352 351 351 348 346 345 343 343 341 338 332 330 322 331 85 219 96 128 131 299 209 210 232 142 218 269 130 127 149 123 196 164 247 298 192 169 156 210 186 211 196 354 70
349 350 351 350 349 349 348 346 344 342 341 340 337 335 333 326 10 291 300 138 319 169 59 283 278 279 147 128 306 195 159 125 42 351 126 208 298 50 78 59 130 94 199 137 57 82 205
348 348 349 348 345 345 344 343 342 341 338 336 333 332 330 333 261 125 298 334 121 61 28 255 249 167 121 136 248 2 13 35 56 357 78 292 4 33 54 339 31 110 57 39 58 91 72
346 346 347 347 345 343 343 342 341 338 337 334 330 331 331 120 248 247 320 340 52 45 261 323 227 133 103 23 6 64 30 38 44 73 21 334 293 44 271 104 41 76 71 43 48 71 44
344 345 346 346 346 344 342 344 342 338 336 333 329 327 298 310 215 313 325 47 47 136 315 309 266 155 136 263 39 48 45 26 43 44 3 342 350 326 36 46 12 61 52 350 349 18 206
344 344 345 349 348 345 344 344 342 339 337 333 328 322 181 232 290 334 53 54 177 241 249 296 10 102 146 146 50 38 75 37 13 67 68 55 336 2 333 54 159 64 126 148 232 181 206
341 343 345 347 348 346 345 344 342 339 338 334 323 332 333 276 221 16 75 88 209 215 276 315 72 75 21 19 115 86 63 118 341 31 120 85 282 325 16 341 68 164 56 166 106 14 76
340 341 338 346 347 347 346 343 342 341 338 335 325 346 314 322 125 66 79 234 236 217 314 46 109 89 87 356 79 81 75 314 187 44 128 192 1 343 300 16 29 94 135 46 12 138 152
338 334 334 341 346 346 345 344 340 343 338 331 12 28 269 341 60 52 156 233 277 254 237 135 155 100 103 105 79 79 134 358 349 49 66 93 102 291 27 23 298 345 27 50 106 110 157
334 336 337 335 341 346 341 344 340 345 344 43 356 24 316 44 53 24 179 208 267 263 58 70 93 99 98 67 85 106 138 44 344 64 64 31 125 287 146 304 286 74 104 99 112 219 99
329 335 330 341 333 338 339 343 341 343 357 325 13 278 315 72 108 321 302 287 231 309 35 75 84 57 50 82 93 72 90 356 23 75 134 172 23 28 355 353 3 41 2 102 93 70 199
329 325 329 332 334 338 340 337 343 339 352 78 24 355 328 35 54 86 351 285 259 37 64 60 77 76 78 64 28 115 91 13 26 78 76 87 94 147 187 210 191 340 349 19 104 97 203
326 328 332 333 336 339 342 341 345 340 346 58 28 320 166 322 337 356 289 283 298 34 61 34 52 58 130 111 69 98 110 109 34 6 54 92 111 177 208 258 46 87 295 325 106 78 144
325 328 331 333 337 341 342 341 350 344 344 70 56 28 350 271 299 318 27 259 182 159 52 17 110 87 98 147 175 186 141 163 183 25 66 16 163 178 230 43 21 81 80 87 72 105 92
323 326 329 332 335 338 341 342 352 355 3 54 324 0 107 281 335 8 304 298 1 53 43 78 136 100 76 167 136 95 89 125 146 143 117 86 129 91 256 28 31 350 265 83 116 208 147
320 322 326 331 332 334 339 342 348 5 55 142 248 94 78 280 304 261 315 304 9 330 138 69 74 91 112 85 80 45 42 89 109 55 111 125 100 84 201 32 267 250 334 165 128 144 138
325 318 321 326 328 328 334 341 343 345 20 69 247 112 112 281 272 311 338 4 8 8 53 82 43 129 106 57 60 40 354 43 65 37 109 100 116 86 134 163 280 303 227 153 155 254 196
319 325 315 321 323 323 328 336 338 331 355 82 250 162 113 114 252 291 315 3 88 45 10 45 64 112 73 83 80 146 203 214 170 76 75 73 73 112 105 117 210 228 191 136 115 305 193
325 324 310 312 317 318 329 331 331 321 342 90 280 190 103 169 269 311 216 202 125 103 139 311 344 26 51 80 95 162 233 209 167 167 173 70 33 138 116 170 289 232 143 129 86 243 165
309 314 326 302 306 309 319 325 326 320 335 87 267 214 136 194 276 242 293 254 88 102 140 237 46 345 46 75 131 199 159 227 80 170 180 164 141 174 91 93 277 161 97 155 203 54 145
311 310 314 313 280 297 312 320 320 318 309 111 300 338 83 172 244 269 264 253 229 205 139 82 171 167 182 93 210 114 142 88 147 229 54 235 175 180 163 213 244 351 176 134 147 139 174